FENGYUN 2H AKM

Satellite information

Favourite Embed

Satellite Type and Status

ROCKET BODYIN ORBIT

Key statistics

Satellite FENGYUN 2H AKM at a glance.

Uptime

2703

Days in orbit

Revolutions

≈ 1.0

Per day

Orbit

GEO

Geostationary Orbit

Inclination

4.3

Latest

Satellite identification and parameters

Extended collection of information and parameters for FENGYUN 2H AKM.

Object identification

Identified? True

Debris? False

Object name: FENGYUN 2H AKM

International designator: 2018-050C

Object number (NORAD): 43497

Object ID (CCSDS): 43497

Country: PEOPLES REPUBLIC OF CHINA (PRC)

Current information (Y/N): Y

Orbital parameters

Period: 1438.912 minutes

Inclination: 4.2703 deg

SMA: 42219.823 km

Apoapsis: 36202.432 km

Periapsis: 35480.943 km

RAAN: 79.6234 deg

Eccentricy: 0.00854443

Argument of periapsis: 318.4033 deg

Mean anomaly: 40.9655 deg

Mean motion: 1.00075588 rev/day

Mean motion (dot): -0.00000268 rev/day2

B* drag term: 0.0 1/REarth

Two-line elements (TLE)

Creation date: Oct. 28, 2025, 7:11 p.m.

Reference frame: TEME

Reference center: EARTH

Epoch: Oct. 28, 2025, 5:54 a.m. UTC

TLE line 0: 0 FENGYUN 2H AKM

TLE line 1: 1 43497U 18050C 25301.24613437 -.00000268 00000-0 00000-0 0 9999

TLE line 2: 2 43497 4.2703 79.6234 0085444 318.4033 40.9655 1.00075588 26981

Live tracking on map

Real-time ground track for satellite FENGYUN 2H AKM.

In-orbit conjunctions

A list of the most updated potential collisions computed for object FENGYUN 2H AKM.

Target Orbit TCA Probability of collision Miss distance Type
ESTRELA DU SOL-TELSTAR14 OTHER 2025-09-13 15:28:29 TBA 4002.0 (m) PAYLOAD
EUTE 2-F2 OTHER 2024-07-01 20:45:10 TBA 3638.0 (m) PAYLOAD

Associated space launch

Fengyun is China's meteorogical satellite program. It includes polar-orbiting and geostationary spacecrafts. Fengyun-2H is a geostationary satellite expected to operate in orbit for about 5 years.

FENGYUN 2H AKM was lifted into orbit during the mission ‘Long March 3A | Fengyun-2H’, on board a Long March 3A space rocket.

The launch took place on June 5, 2018, 1:07 p.m. from Launch Complex 3 (LC-3/LA-1).

For more information about the launch, click the button.

Launch to space Long March 3A | Fengyun-2H
Long March 3A | Fengyun-2H

Agency: N/A

Status: Launch Successful

Launch date: June 5, 2018, 1:07 p.m. UTC

Rocket: Long March 3A

Launch pad: Launch Complex 3 (LC-3/LA-1)

Location: Xichang Satellite Launch Center, People's Republic of China

...

Latest news about this satellite

There are no fresh news available about this satellite. Check back as we update our databases every day.


Newsletter sign-up

Weekly statistics, charts and insights to help you stay on top of the space industry.